Tracking 28920 objects as of 26-May-2024
HD Live streaming from Space Station
objects crossing your sky now

STARLINK-31669

Track STARLINK-31669 now!
10-day predictions


NORAD ID: 59515
Int'l Code: 2024-073E
Perigee: 450.1 km
Apogee: 452.3 km
Inclination: 43.0 °
Period: 93.5 minutes
Semi major axis: 6822 km
RCS: Unknown
Launch date: April 17, 2024
Source: United States (US)
Launch site: AIR FORCE EASTERN TEST RANGE (AFETR)
Your satellite tracking list
Your tracking list is empty




NASA's NSSDC Master Catalog

Two Line Element Set (TLE):
1 59515U 24073E   24147.21122554 -.00006486  00000-0 -14812-3 0  9996
2 59515  43.0018  76.9683 0001624 289.7607  70.3075 15.40702042  5994
Source of the keplerian elements: AFSPC